Probability
0 0 0 0 0 0 0 0 0 0 0 0 0 0 0 0 0 0 0 0 0 0 0 0 0 0 0 0 0 0 0 0 0 0 0 0 0 0 0 0 0 0 0 0
0 0 0 0 0 0 0 0 0 0 0 0 0 0 0 0 0 0 0 0 0 0 0 0 0 0 0 0 0 0 0 0 0 0 0 0 0 0 0 0 0 0 0 0
0 0 0 0 0 0 0 0 0 0 0 0 0 0 0 0 0 0 0 0 0 0 0 0 0 0 0 0 0 0 0 0 0 0 0 0 0 0 0 0 0 0 0 0
0 0 0 0 0 0 0 0 0 0 0 0 0 0 0 0 0 0 0 0 0 0 0 0 0 0 0 0 0 0 0 0 0 0 0 0 0 0 0 0 0 0 0 0
0 0 0 0 0 0 0 0 0 0 0 0 0 0 0 0 0 0 0 0 0 0 0 0 0 0 0 0 0 0 0 0 0 0 0 0 0 0 0 0 0 0 0 0
0 0 0 0 0 0 0 0 0 0 0 0 0 0 0 0 0 0 0 0 0 0 0 0 0 0 0 0 0 0 0 0 0 0 0 0 0 0 0 0 0 0 0 0
0 0 0 0 0 0 0 0 0 0 0 0 0 0 0 0 0 0 0 0 0 0 0 0 0 0 0 0 0 0 0 0 0 0 0 0 0 0 0 0 0 0 0 0
0 0 0 0 0 0 0 0 0 0 0 0 0 0 0 0 0 0 0 0 0 0 0 0 0 0 0 0 0 0 0 0 0 0 0 0 0 0 0 0 0 0 0 0
0 0 0 0 0 0 0 0 0 0 0 0 0 0 0 0 0 0 0 0 0 0 0 0 0 0 0 0 0 0 0 0 0 0 0 0 0 0 0 0 0 0 0 0
0 0 0 0 0 0 0 0 0 0 0 0 0 0 0 0 0 0 0 0 0 0 0 0 0 0 0 0 0 0 0 0 0 0 0 0 0 0 0 0 0 0 0 0
0 0 0 0 0 0 0 0 0 0 0 0 0 0 0 0 0 0 0 0 0 0 0 0 0 0 0 0 0 0 0 0 0 0 0 0 0 0 0 0 0 0 0 0
0 0 0 0 0 0 0 0 0 0 0 0 0 0 0 0 0 0 0 0 0 0 0 0 0 0 0 0 0 0 0 0 0 0 0 0 0 0 0 0 0 0 0 0
0 0 0 0 0 0 0 0 0 0 0 0 0 0 0 0 0 0 0 0 0 0 0 0 0 0 0 0 0 0 0 0 0 0 0 0 0 0 0 0 0 0 0 0
0 0 0 0 0 0 0 0 0 0 0 0 0 0 0 0 0 0 0 0 0 0 0 0 0 0 0 0 0 0 0 0 0 0 0 0 0 0 0 0 0 0 0 0
0 0 0 0 0 0 0 0 0 0 0 0 0 0 0 0 0 0 0 0 0 0 0 0 0 0 0 0 0 0 0 0 0 0 0 0 0 0 0 0 0 0 0 0
0 0 0 0 0 0 0 0 0 0 0 0 0 0 0 0 0 0 0 0 0 0 0 0 0 0 0 0 0 0 0 0 0 0 0 0 0 0 0 0 0 0 0 0
0 0 0 0 0 0 0 0 0 0 0 0 0 0 0 0 0 0 0 0 0 0 0 0 0 0 0 0 0 0 0 0 0 0 0 0 0 0 0 0 0 0 0 0
0 0 0 0 0 0 0 0 0 0 0 0 0 0 0 0 0 0 0 0 0 0 0 0 0 0 0 0 0 0 0 0 0 0 0 0 0 0 0 0 0 0 0 0
0 0 0 0 0 0 0 0 0 0 0 0 0 0 0 0 0 0 0 0 0 0 0 0 0 0 0 0 0 0 0 0 0 0 0 0 0 0 0 0 0 0 0 0
0 0 0 0 0 0 0 0 0 0 0 0 0 0 0 0 0 0 0 0 0 0 0 0 0 0 0 0 0 0 0 0 0 0 0 0 0 0 0 0 0 0 0 0
0 0 0 0 0 0 0 0 0 0 0 0 0 0 0 0 0 0 0 0 0 0 0 0 0 0 0 0 0 0 0 0 0 0 0 0 0 0 0 0 0 0 0 0
0 0 0 0 0 0 0 0 0 0 0 0 0 0 0 0 0 0 0 0 0 0 0 0 0 0 0 0 0 0 0 0 0 0 0 0 0 0 0 0 0 0 0 0
0 0 0 0 0 0 0 0 0 0 0 0 0 0 0 0 0 0 0 0 0 0 0 0 0 0 0 0 0 0 0 0 0 0 0 0 0 0 0 0 0 0 0 0
0 0 0 0 0 0 0 0 0 0 0 0 0 0 0 0 0 0 0 0 0 0 0 0 0 0 0 0 0 0 0 0 0 0 0 0 0 0 0 0 0 0 0 0
0 0 0 0 0 0 0 0 0 0 0 0 0 0 0 0 0 0 0 0 0 0 0 0 0 0 0 0 0 0 0 0 0 0 0 0 0 0 0 0 0 0 0 0
0 0 0 0 0 0 0 0 0 0 0 0 0 0 0 0 0 0 0 0 0 0 0 0 0 0 0 0 0 0 0 0 0 0 0 0 0 0 0 0 0 0 0 0
Height
5746 5745 5743 5741 5739 5737 5735 5734 5732 5731 5728 5727 5725 5723 5722 5719 5718 5716 5715 5714 5714 5713 5712 5712 5711 5711 5710 5710 5710 5710 5711 5712 5713 5714 5716 5717 5719 5721 5722 5725 5727 5730 5732 5735
5741 5738 5736 5733 5731 5729 5727 5726 5724 5722 5719 5717 5715 5713 5712 5709 5707 5705 5704 5703 5703 5702 5701 5700 5700 5699 5699 5699 5699 5699 5700 5700 5701 5703 5704 5706 5708 5710 5711 5714 5716 5719 5722 5724
5733 5732 5729 5726 5724 5722 5719 5717 5715 5713 5710 5707 5705 5704 5702 5699 5696 5695 5693 5692 5690 5689 5689 5688 5688 5687 5687 5687 5687 5688 5688 5689 5690 5691 5692 5693 5695 5697 5700 5702 5705 5707 5710 5713
5726 5724 5721 5719 5716 5714 5712 5709 5706 5703 5700 5698 5695 5692 5692 5689 5686 5684 5682 5680 5678 5677 5676 5676 5675 5675 5675 5675 5675 5675 5675 5676 5677 5678 5679 5681 5683 5685 5687 5689 5692 5695 5698 5701
5719 5716 5714 5711 5708 5705 5703 5700 5697 5693 5690 5687 5685 5681 5681 5678 5676 5673 5671 5668 5666 5665 5664 5663 5663 5663 5662 5662 5662 5663 5663 5663 5664 5665 5667 5668 5670 5672 5674 5677 5680 5683 5686 5689
5711 5708 5706 5703 5699 5696 5693 5690 5687 5684 5680 5678 5675 5671 5669 5667 5665 5662 5660 5657 5655 5654 5652 5651 5650 5650 5649 5649 5649 5649 5650 5651 5651 5652 5654 5655 5657 5659 5662 5664 5667 5670 5673 5677
5703 5701 5697 5694 5691 5688 5684 5681 5677 5673 5670 5667 5664 5660 5658 5656 5653 5650 5648 5646 5644 5642 5641 5639 5638 5637 5637 5636 5636 5636 5637 5638 5638 5639 5641 5643 5644 5647 5649 5651 5654 5657 5661 5664
5694 5692 5689 5685 5682 5678 5675 5671 5667 5663 5659 5656 5653 5650 5649 5646 5642 5639 5637 5635 5632 5631 5629 5627 5626 5625 5624 5623 5623 5622 5623 5624 5625 5626 5628 5629 5631 5633 5636 5638 5641 5644 5648 5651
5685 5683 5680 5676 5672 5669 5665 5661 5658 5653 5647 5644 5642 5640 5638 5635 5632 5629 5626 5623 5621 5619 5617 5616 5614 5612 5611 5610 5609 5609 5609 5610 5611 5612 5614 5616 5618 5620 5623 5625 5628 5631 5635 5638
5675 5673 5671 5667 5663 5659 5656 5651 5647 5642 5636 5632 5631 5629 5627 5623 5621 5618 5615 5612 5609 5608 5606 5604 5602 5600 5598 5597 5596 5595 5595 5596 5597 5598 5600 5602 5604 5607 5609 5612 5615 5618 5621 5625
5666 5663 5661 5657 5653 5650 5646 5642 5637 5632 5627 5622 5618 5621 5616 5612 5609 5606 5603 5600 5598 5596 5594 5591 5589 5587 5585 5584 5583 5582 5582 5582 5583 5584 5586 5588 5590 5592 5595 5598 5601 5604 5608 5611
5656 5653 5650 5647 5643 5639 5636 5632 5627 5623 5618 5613 5608 5610 5606 5601 5597 5594 5591 5588 5586 5584 5581 5579 5577 5574 5573 5571 5570 5569 5568 5568 5569 5569 5571 5573 5575 5578 5582 5585 5588 5591 5595 5598
5647 5643 5639 5637 5635 5630 5626 5621 5617 5612 5608 5603 5599 5600 5595 5590 5586 5583 5579 5576 5573 5571 5568 5566 5563 5562 5560 5558 5557 5556 5555 5555 5555 5555 5556 5558 5561 5564 5567 5571 5575 5578 5582 5585
5637 5634 5631 5627 5622 5618 5615 5611 5607 5602 5597 5593 5590 5587 5585 5579 5575 5572 5568 5564 5561 5558 5555 5552 5550 5548 5547 5545 5544 5543 5542 5542 5541 5541 5542 5544 5547 5550 5554 5557 5561 5565 5569 5573
5627 5624 5620 5616 5612 5608 5604 5601 5597 5592 5587 5582 5579 5576 5572 5568 5564 5560 5556 5552 5549 5546 5542 5540 5537 5535 5534 5533 5531 5530 5529 5528 5528 5528 5529 5531 5533 5537 5540 5544 5548 5552 5556 5560
5617 5613 5610 5607 5602 5597 5594 5591 5587 5582 5577 5573 5568 5566 5562 5557 5552 5549 5544 5540 5537 5534 5530 5527 5525 5522 5521 5519 5518 5518 5517 5516 5515 5515 5516 5518 5520 5524 5528 5531 5535 5540 5544 5547
5607 5603 5598 5596 5592 5587 5585 5583 5577 5572 5568 5563 5558 5555 5550 5546 5542 5538 5533 5529 5526 5522 5518 5515 5512 5510 5508 5507 5505 5505 5504 5504 5503 5503 5504 5506 5508 5511 5515 5519 5523 5527 5531 5534
5597 5592 5587 5584 5581 5577 5578 5572 5567 5562 5559 5553 5548 5544 5539 5535 5531 5527 5522 5518 5515 5511 5507 5504 5501 5498 5496 5494 5493 5492 5492 5491 5491 5492 5493 5494 5497 5499 5503 5507 5510 5515 5518 5522
5588 5583 5578 5574 5569 5567 5567 5562 5556 5552 5549 5544 5538 5534 5529 5525 5522 5518 5512 5508 5503 5500 5496 5493 5489 5487 5485 5483 5482 5481 5480 5479 5480 5480 5481 5483 5485 5487 5490 5494 5498 5502 5506 5510
5578 5573 5569 5564 5559 5557 5557 5552 5545 5542 5538 5534 5528 5524 5519 5515 5511 5509 5503 5498 5493 5489 5485 5482 5479 5476 5474 5472 5471 5470 5469 5468 5468 5469 5469 5471 5473 5475 5478 5482 5485 5489 5493 5497
5568 5564 5560 5555 5550 5547 5546 5540 5536 5532 5529 5523 5518 5514 5510 5505 5501 5497 5492 5488 5483 5479 5475 5472 5469 5466 5464 5462 5460 5459 5458 5458 5458 5458 5459 5460 5462 5464 5467 5470 5473 5477 5481 5485
5558 5554 5551 5546 5542 5541 5535 5530 5527 5523 5517 5513 5508 5504 5500 5495 5491 5487 5482 5478 5473 5469 5465 5462 5459 5457 5454 5452 5450 5449 5448 5448 5448 5448 5449 5450 5451 5453 5456 5459 5462 5465 5469 5473
5549 5546 5541 5538 5536 5530 5525 5521 5517 5512 5508 5503 5498 5494 5490 5486 5482 5477 5473 5468 5464 5460 5457 5453 5450 5448 5445 5443 5441 5440 5439 5439 5438 5439 5439 5440 5442 5443 5446 5448 5451 5454 5457 5461
5540 5535 5531 5528 5525 5521 5516 5511 5507 5503 5498 5493 5489 5485 5481 5476 5472 5468 5463 5459 5455 5451 5448 5445 5442 5440 5437 5435 5433 5432 5431 5430 5430 5430 5430 5431 5433 5434 5436 5438 5440 5443 5447 5450
5530 5525 5522 5518 5515 5511 5507 5502 5498 5493 5489 5485 5480 5476 5471 5467 5463 5458 5454 5449 5446 5442 5439 5436 5434 5432 5430 5427 5426 5424 5423 5422 5422 5422 5422 5423 5423 5425 5426 5428 5431 5433 5436 5439
5520 5516 5512 5509 5506 5501 5498 5494 5489 5484 5480 5476 5471 5467 5462 5458 5454 5449 5445 5441 5437 5434 5431 5428 5426 5423 5421 5420 5418 5416 5415 5414 5414 5414 5414 5414 5415 5416 5418 5420 5422 5423 5426 5429
Wind_Speed
27 28 28 29 30 30 31 32 33 35 36 37 37 38 38 38 39 40 40 40 40 40 40 40 40 40 40 40 41 41 41 41 40 40 41 42 42 42 42 42 42 41 40 39
28 29 29 30 30 31 32 33 34 36 37 38 39 39 39 39 40 41 41 42 41 41 41 42 41 42 42 42 42 42 42 42 42 42 42 43 43 43 44 44 44 44 43 42
30 30 31 31 31 32 33 34 36 37 37 39 40 39 39 39 40 41 41 42 43 43 43 43 43 43 43 43 43 43 43 43 44 43 43 44 44 44 45 45 45 45 44 44
30 31 31 32 33 34 35 36 37 38 38 39 40 41 38 39 40 40 41 42 43 43 43 43 42 42 43 43 43 44 44 44 44 44 44 44 45 45 46 46 46 46 45 45
31 32 32 33 34 36 37 37 38 39 40 41 40 42 40 40 40 40 41 41 42 42 43 43 43 43 44 44 44 45 46 45 45 45 45 45 45 46 47 46 47 47 47 46
33 33 34 35 36 37 38 39 39 40 41 42 41 42 42 41 40 40 40 40 41 41 41 42 42 43 44 44 45 45 46 46 46 45 45 45 45 46 46 46 47 47 47 47
35 35 36 37 38 38 38 39 40 42 42 42 42 43 44 42 41 41 40 40 40 41 41 41 42 43 44 44 45 46 46 47 47 47 47 47 47 46 46 47 47 48 48 48
36 37 37 38 39 39 39 39 40 42 44 44 43 44 44 42 42 41 40 40 40 40 40 41 42 43 43 44 45 46 46 47 48 48 49 49 49 48 48 48 48 48 49 49
37 38 38 39 39 39 40 40 41 42 44 45 44 44 43 42 42 41 40 40 40 41 41 41 42 43 43 43 44 45 46 47 47 48 48 48 48 48 48 48 48 48 48 48
38 39 39 39 39 39 40 41 41 41 44 45 45 44 43 42 41 41 41 41 41 41 42 42 42 43 43 44 44 45 45 46 47 47 48 48 49 48 48 48 48 48 48 48
39 40 40 40 40 40 40 41 41 42 43 44 45 44 42 42 42 42 42 42 42 41 42 42 42 42 43 43 44 44 45 45 46 47 48 49 49 50 49 48 48 48 48 48
40 41 41 40 41 41 41 42 42 42 43 44 46 45 42 43 43 43 44 44 43 42 42 43 43 43 43 42 42 43 44 45 46 47 48 49 49 50 49 49 49 49 49 49
40 41 42 42 42 42 42 42 42 42 44 44 45 44 43 43 44 44 44 44 44 44 44 44 44 44 43 43 43 42 43 43 45 46 47 48 49 49 48 48 48 48 48 48
41 41 41 42 42 42 42 41 41 42 43 45 44 44 42 43 43 44 44 44 45 45 44 44 44 44 44 43 43 42 42 43 43 44 45 46 47 48 48 47 47 47 47 48
42 42 41 42 42 42 42 41 40 41 42 44 44 43 43 44 44 43 43 44 44 44 44 44 44 44 44 43 43 42 42 42 42 43 44 45 46 47 47 47 47 46 46 46
43 42 42 42 42 41 41 41 40 40 41 42 43 43 43 43 43 43 42 42 42 42 43 43 43 42 42 42 42 41 41 41 41 42 42 43 44 45 46 46 46 45 45 45
42 42 43 43 41 41 41 39 39 40 40 41 42 42 42 41 41 41 42 42 41 41 41 42 42 42 41 41 42 41 41 41 40 40 40 41 42 44 44 45 45 45 45 45
42 42 43 43 41 41 40 39 39 39 40 41 41 42 41 41 40 40 41 41 40 40 39 39 39 39 40 40 40 40 40 40 39 39 39 39 41 43 44 44 44 45 45 45
41 41 41 41 41 42 40 39 39 40 40 40 41 41 41 40 39 38 39 40 40 39 38 38 38 38 38 38 38 37 38 38 39 38 39 39 40 42 43 43 43 44 44 44
40 40 40 40 40 41 40 39 40 41 40 40 40 40 40 39 39 37 38 38 38 39 38 37 37 37 37 36 36 36 36 36 36 36 37 38 39 40 41 42 43 43 44 44
38 39 38 38 40 41 40 39 39 39 40 39 39 38 38 38 38 37 37 38 38 37 37 37 36 36 35 35 35 34 34 34 35 34 35 36 37 38 39 41 42 42 42 42
39 39 38 38 39 39 39 39 39 40 40 39 38 38 38 37 37 37 37 37 37 37 36 35 34 34 34 34 33 32 32 32 32 33 33 34 34 36 37 38 39 40 40 40
38 38 39 39 39 39 38 39 39 40 40 39 39 38 38 37 37 37 37 38 37 36 35 34 32 32 32 32 31 30 30 30 30 31 31 32 33 34 35 36 37 38 39 39
38 38 39 39 38 38 38 39 39 40 39 39 38 37 37 37 37 37 37 37 36 34 33 32 31 31 31 30 29 28 27 28 28 29 29 30 31 32 33 33 35 36 37 38
39 39 38 38 37 38 37 38 38 38 38 37 37 37 37 37 36 37 36 35 34 33 32 32 31 31 30 29 28 28 27 27 27 27 28 28 29 30 31 31 32 33 34 35
37 37 37 37 36 37 36 37 37 38 38 37 37 36 36 36 35 35 34 33 32 31 31 30 30 30 29 28 28 27 27 26 25 24 25 26 27 28 29 29 30 31 32 33
Wind_Direction
290 290 292 291 290 288 287 287 287 286 285 284 284 284 283 282 280 279 277 276 275 273 271 270 268 267 265 264 263 263 262 261 259 257 255 254 254 253 252 250 250 250 251 251
291 291 292 292 291 291 290 289 289 288 288 287 286 285 284 283 281 280 278 277 275 273 271 270 268 267 265 264 263 263 263 262 260 258 256 255 253 253 252 250 250 250 250 250
292 293 293 292 291 292 292 292 291 291 290 290 289 287 286 284 283 281 279 277 275 273 272 270 269 267 265 264 263 262 262 262 261 258 257 255 253 252 251 250 249 249 250 250
293 294 293 292 292 293 293 293 292 292 292 293 292 290 288 286 285 284 281 278 276 274 272 270 269 267 265 264 264 262 261 261 260 259 257 255 253 252 251 250 249 248 249 249
294 293 293 293 293 293 294 294 293 293 293 293 293 291 290 289 287 285 283 281 277 275 274 272 270 268 266 264 264 263 262 260 259 257 256 255 253 251 251 250 249 248 248 249
294 293 294 294 294 294 294 295 294 294 294 293 293 292 292 291 290 287 284 282 279 277 276 275 273 270 268 266 264 263 261 260 258 256 255 254 253 252 251 250 249 248 248 248
293 293 294 294 294 294 295 296 296 296 295 295 295 293 293 294 292 289 286 284 281 279 278 277 275 273 270 268 266 264 261 259 257 256 255 254 253 252 251 250 249 249 248 248
295 294 295 295 295 295 295 296 297 297 297 296 295 293 294 294 293 290 288 286 283 281 279 278 276 274 272 269 267 265 262 259 258 257 256 255 254 253 251 251 250 249 248 248
296 295 296 295 296 296 297 296 297 297 297 296 295 294 293 293 293 291 289 287 284 282 281 279 276 275 273 270 268 265 263 260 258 258 257 256 255 254 252 252 251 250 249 247
296 296 296 296 296 297 298 298 298 298 297 297 296 296 297 296 293 292 290 288 285 283 281 280 277 275 274 271 269 266 264 261 259 257 256 255 254 253 251 251 250 249 248 248
298 297 297 296 296 297 298 299 298 297 297 297 296 297 297 296 294 292 291 289 286 284 282 280 278 276 274 272 269 267 265 263 260 258 257 255 254 252 251 250 249 249 249 248
300 299 298 297 297 297 298 299 299 298 297 296 295 296 296 295 294 292 291 289 287 285 283 280 279 277 275 273 271 269 267 264 262 259 257 255 253 251 251 250 250 249 249 249
300 300 300 299 298 299 299 299 298 297 296 296 295 295 295 294 293 292 291 290 288 286 283 281 279 277 276 274 272 269 267 265 264 261 258 255 253 251 251 250 250 249 248 248
300 300 300 300 299 299 300 299 298 297 296 296 296 295 294 293 293 292 291 290 289 287 285 282 280 278 276 274 272 270 268 266 265 263 260 255 252 251 250 250 249 248 247 248
300 299 298 298 298 298 298 298 298 296 297 296 297 296 296 294 294 294 293 291 290 288 286 283 280 278 276 274 272 271 269 267 266 263 260 256 252 250 250 249 248 248 248 248
299 298 298 297 297 298 298 298 298 297 297 297 297 297 296 295 294 293 293 293 291 289 287 284 282 279 277 275 273 271 270 267 266 263 260 256 252 250 249 249 248 248 248 249
298 297 297 297 297 297 298 300 298 297 298 299 299 299 298 296 295 294 293 293 292 290 288 286 283 281 278 276 274 272 270 268 267 264 260 256 253 251 250 249 247 247 248 249
299 298 297 297 297 296 301 300 299 298 299 299 300 300 299 298 297 296 294 294 294 292 289 287 285 282 280 277 275 273 271 268 267 264 260 257 255 252 251 250 248 248 248 249
298 298 297 298 297 298 300 302 300 299 299 299 300 300 299 298 297 296 296 296 295 293 291 289 286 284 281 279 277 274 271 269 267 264 261 259 256 254 251 249 248 248 248 249
298 297 297 297 297 299 302 302 302 301 301 300 300 300 300 300 298 298 296 296 296 295 293 290 288 286 283 282 279 276 272 271 268 265 262 260 257 254 251 249 249 249 249 249
299 298 297 297 297 299 303 303 303 303 305 303 301 300 300 300 300 299 299 297 296 296 295 292 290 288 285 283 281 277 274 271 268 265 263 260 257 255 253 251 250 250 249 249
299 299 298 297 298 301 302 302 303 304 304 304 303 301 300 300 299 299 299 298 297 296 295 293 292 290 287 285 282 278 274 272 269 265 263 261 258 256 253 251 250 250 249 248
297 297 297 298 299 300 301 301 302 303 303 303 303 302 301 301 300 299 299 298 297 295 294 293 291 290 289 287 285 280 276 273 271 267 264 261 259 258 255 253 251 250 249 248
296 296 296 297 298 299 300 300 301 302 303 304 303 303 303 302 302 300 299 298 297 295 293 292 291 290 289 287 286 282 278 276 273 269 265 262 260 258 256 254 253 251 250 249
296 297 297 296 297 297 299 300 301 301 302 302 303 303 303 303 303 303 301 299 298 296 294 292 291 290 288 286 285 283 279 277 274 271 267 264 261 258 256 255 253 252 251 251
297 297 296 296 297 297 299 300 301 301 302 302 302 303 303 303 304 304 303 301 299 297 295 293 291 289 288 286 285 283 279 277 275 272 268 263 260 258 256 254 254 253 252 251